Showing default

GNOMES-1, 46266

Orbit data source: Space-Track

GNOMES-1, 46266 is a payload satellite owned by PlanetiQ (US) in SSO that was launched on Sun, 30 Aug 2020 UTC via an FALCON 9 launch vehicle from the Air Force Eastern Test Range (AFETR). Payload-class satellites include a variety of spacecraft equipped with specific instruments for various scientific and technological missions. These include communications satellites like Starlink; space stations such as the ISS; scientific satellites like the Hubble; Earth observation satellites from companies like Planet Labs, Umbra, and HawkEye 360; GPS; miniature CubeSats for education and research; and military/defense satellites.

Loading next visibility...
Identifier
46266, 2020-059B
Orbit
SSO
Country
Flag of USUS
Related business
Manufacturer
Blue Canyon
Mission
Operational Commercial Meteo Radio Occ.
Bus & Motor
XSAT, Unknown motor
Mass
~30 kg wet, ~30 kg dry
Launch date (UTC)
2020-08-30 (5 years ago)
Launch vehicle
FALCON 9
Launch site
Air Force Eastern Test Range (AFETR)
Object type
Payload
Rocket body
Debris
Shape & HBR
Box + 2 Pan, Unknown HBR
Radar Cross Section
0.162 m², Medium (>0.1 m² and < 1m²)

Expand to show TLE details & history
Last TLE update: 12 hours ago

TLE from 12 hours ago
0 GNOMES-1
1 46266U 20059B   25260.99782941  .00003052  00000-0  26107-3 0  9993
2 46266  97.8181 105.9139 0005255 145.1523 215.0044 14.98355160274805
Epoch: 2025-09-17T23:56Z
TLE epoch observation values (Epoch: 2025-09-17T23:56:52.461Z)
Latitude
-0.00001°
Longitude
109.52957°
Altitude
578.02 km
Speed
7.57 km/s
True Right ascension
07h 03m 39s
True Declination
0° 00' 00"
Sunlit
Object was in daylight at epoch
Visualization orbit readout
Latitude
Unknown
Longitude
Unknown
Altitude
Unknown
Speed
Unknown
Apparent Right ascension
Unknown
Apparent Declination
Unknown
Sunlit
N/A
Visualization observer readout
Local Sidereal Time
04:51:04
Azimuth
Unknown
Elevation
Unknown
Doppler factor
Unknown
Orbital elements
Apogee altitude
572.642 km
Perigee altitude
565.34 km
Semi-major axis
6,947.128 km
Eccentricity
0.00053
Inclination
97.8181°
RAAN
105.9139°
Arg. of periapsis
145.1523°
True anomaly
214.96988°
Mean anomaly
215.0044°
Eccentric anomaly
214.98714°
Mean motion
3.74831 °/min
Orbital period
96.04 mins
BSTAR
0.00026107
Loading maneuver chart data...
Computing Atmospheric mass density...
Loading historical data...
Loading historical data...
Loading historical data...
Loading historical data...
Loading historical data...
Loading historical data...
Loading historical data...
Other satellites on launch #59 in the year 2020 (2020-08-30 UTC)

Documentation

Showing up to 5 results
|